Regional Weather Roundup
Issued by NWS

Home | Current Version | Previous Version | Graphics & Text | Print | Product List | Glossary On
Versions: 1 2 3 4 5 6 7 8 9 10 11 12 13 14 15 16 17 18 19 20 21 22 23 24 25 26 27 28 29 30 31 32 33 34 35 36 37 38 39 40 41 42 43 44 45 46 47 48 49 50
000
ASUS43 KDTX 281810
RWRMI
MICHIGAN HOURLY REGIONAL WEATHER ROUNDUP
NATIONAL WEATHER SERVICE DETROIT/PONTIAC MI
200 PM EDT FRI AUG 28 2015

NOTE: "FAIR" INDICATES FEW OR NO CLOUDS BELOW 12,000 FEET WITH NO
SIGNIFICANT WEATHER AND/OR OBSTRUCTION TO VISIBILITY.

MIZ047>049-052>055-059>063-066>070-074>076-081>083-281900-
SOUTHEAST LOWER MICHIGAN

CITY           SKY/WX    TMP DP  RH WIND       PRES   REMARKS
ADRIAN         PTSUNNY   76  57  51 SW10      30.19F
6HR MIN TEMP:  52; 6HR MAX TEMP:  76;

ALMA           MOSUNNY   73  59  61 S5        30.16F
ANN ARBOR      MOSUNNY   72  58  61 S7        30.18F
BAD AXE        PTSUNNY   69  55  61 S6        30.18F
CARO           PTSUNNY   72  58  62 W7        30.17F
DETROIT CITY   PTSUNNY   73  56  54 S8        30.19F
6HR MIN TEMP:  53; 6HR MAX TEMP:  73;

DETROIT        PTSUNNY   74  56  53 S6        30.19F
6HR MIN TEMP:  56; 6HR MAX TEMP:  75;

FLINT          PTSUNNY   74  57  55 SW7       30.17F
6HR MIN TEMP:  51; 6HR MAX TEMP:  75;

GROSSE ILE     SUNNY     72  63  73 S8        30.18F
HILLSDALE      MOSUNNY   74  60  62 SW7       30.19S
6HR MIN TEMP:  57; 6HR MAX TEMP:  74;

HOWELL         PTSUNNY   75  56  50 S8        30.17F
6HR MIN TEMP:  48; 6HR MAX TEMP:  76;


CITY           SKY/WX    TMP DP  RH WIND       PRES   REMARKS
JACKSON        MOSUNNY   74  60  61 SW9       30.18F
6HR MIN TEMP:  54; 6HR MAX TEMP:  74;

LAMBERTVILLE   PTSUNNY   77  57  50 S5        30.19F
6HR MIN TEMP:  53; 6HR MAX TEMP:  77;

LANSING        MOSUNNY   74  59  59 SW5       30.17F
6HR MIN TEMP:  51; 6HR MAX TEMP:  74;

LAPEER         FAIR      73  56  55 SW6       30.18F
6HR MIN TEMP:  48; 6HR MAX TEMP:  74;

MASON          MOSUNNY   74  56  53 SW6       30.17F
6HR MIN TEMP:  48; 6HR MAX TEMP:  74;

MONROE         CLOUDY    73  58  58 CALM      30.18F
6HR MIN TEMP:  52; 6HR MAX TEMP:  74;

MT. CLEMENS    MOSUNNY   71  61  70 SE8       30.18F
6HR MIN TEMP:  54; 6HR MAX TEMP:  71;

PONTIAC        PTSUNNY   70  56  61 SW5       30.18F
6HR MIN TEMP:  53; 6HR MAX TEMP:  72;

PORT HOPE        N/A     70  58  65 NE6       30.16F
6HR MIN TEMP:  58; 6HR MAX TEMP:  72;

PORT HURON     PTSUNNY   72  57  60 SW5       30.19F
TRI CITIES     MOSUNNY   73  56  54 VRB7      30.17F
6HR MIN TEMP:  56; 6HR MAX TEMP:  73;

MIDLAND        PTSUNNY   72  55  54 SW7       30.15F
TROY           PTSUNNY   73  56  54 SW10      30.20F
SAGINAW HB     MOSUNNY   72  59  64 S7G16     30.16F
$$
MIZ043>046-050>051-056>058-064>065-071>073-077>080-281900-
SOUTHWEST LOWER MICHIGAN

CITY           SKY/WX    TMP DP  RH WIND       PRES   REMARKS
BATTLE CREEK   PTSUNNY   73  60  63 SW3       30.17F
6HR MIN TEMP:  57; 6HR MAX TEMP:  75;

BENTON HARBOR  CLOUDY    74  62  66 VRB3      30.14F
6HR MIN TEMP:  57; 6HR MAX TEMP:  75;

BIG RAPIDS     PTSUNNY   71  56  57 S6        30.14F
6HR MIN TEMP:  50; 6HR MAX TEMP:  72;

COLDWATER      PTSUNNY   74  61  64 SW7       30.17F
6HR MIN TEMP:  56; 6HR MAX TEMP:  74;

FREMONT        PTSUNNY   72  56  58 CALM      30.15F
HOLLAND        CLOUDY    75  60  59 SW7       30.16F
6HR MIN TEMP:  54; 6HR MAX TEMP:  75;

GRAND RAPIDS   PTSUNNY   74  59  59 S8        30.15F
6HR MIN TEMP:  55; 6HR MAX TEMP:  74;

IONIA          PTSUNNY   75  58  57 SW5       30.15F
6HR MIN TEMP:  53; 6HR MAX TEMP:  75;

KALAMAZOO      CLOUDY    74  60  61 SW8       30.16F
6HR MIN TEMP:  56; 6HR MAX TEMP:  75;

LUDINGTON      PTSUNNY   73  62  67 SW10      30.14F
6HR MIN TEMP:  57; 6HR MAX TEMP:  73;

MARSHALL       PTSUNNY   74  61  61 SW8       30.16F
6HR MIN TEMP:  53; 6HR MAX TEMP:  74;

MOUNT PLEASANT PTSUNNY   74  58  57 SE5       30.15F
6HR MIN TEMP:  54; 6HR MAX TEMP:  74;

MUSKEGON       CLOUDY    73  59  61 SW5       30.15F
6HR MIN TEMP:  56; 6HR MAX TEMP:  73;

SOUTH HAVEN    CLOUDY    75  60  58 W3        30.15F
$$
MIZ016>042-281900-
NORTHERN LOWER MICHIGAN

CITY           SKY/WX    TMP DP  RH WIND       PRES   REMARKS
ALPENA         PTSUNNY   74  55  51 SW9       30.13F
6HR MIN TEMP:  50; 6HR MAX TEMP:  75;

BEAVER ISLAND  MOSUNNY   71  61  71 SW13G21   30.10F
BELLAIRE       CLOUDY    73  58  59 S6        30.12F
6HR MIN TEMP:  51; 6HR MAX TEMP:  73;

CADILLAC       PTSUNNY   71  56  59 S6        30.14F
CHARLEVOIX     MOSUNNY   72  58  62 SW6       30.14F
6HR MIN TEMP:  58; 6HR MAX TEMP:  73;

FRANKFORT      MOSUNNY   70  63  77 SW10      30.12F
GAYLORD        PTSUNNY   72  56  57 S13       30.14F
6HR MIN TEMP:  54; 6HR MAX TEMP:  72;

GRAYLING       PTSUNNY   71  56  58 SW5       30.15F
6HR MIN TEMP:  46; 6HR MAX TEMP:  72;

HARBOR SPRINGS MOSUNNY   72  60  64 SW6       30.11F
HOUGHTON LAKE  MOSUNNY   70  55  59 SW8       30.16F
6HR MIN TEMP:  53; 6HR MAX TEMP:  71;

MANISTEE       PTSUNNY   72  57  60 SW6       30.13F
OSCODA         PTSUNNY   73  56  55 SW12      30.14F
6HR MIN TEMP:  56; 6HR MAX TEMP:  74;

PELLSTON       MOSUNNY   74  58  57 VRB5      30.11F
6HR MIN TEMP:  57; 6HR MAX TEMP:  74;

ROGERS CITY    PTSUNNY   76  57  52 S8        30.12F
TRAVERSE CITY  PTSUNNY   75  58  55 VRB6      30.11F
6HR MIN TEMP:  59; 6HR MAX TEMP:  75;

$$
MIZ007>008-015-281900-
EASTERN UPPER MICHIGAN

CITY           SKY/WX    TMP DP  RH WIND       PRES   REMARKS
KINROSS        MOSUNNY   73  61  64 SW14      30.08F
6HR MIN TEMP:  59; 6HR MAX TEMP:  73;

MACKINAC ISLAN FAIR      71  57  61 SW14      30.09F
6HR MIN TEMP:  60; 6HR MAX TEMP:  71;

NEWBERRY       MOSUNNY   74  59  59 S21       30.06S
6HR MIN TEMP:  58; 6HR MAX TEMP:  75;

S. S. MARIE    SUNNY     75  61  61 SW13      30.06F
6HR MIN TEMP:  57; 6HR MAX TEMP:  75;

MUNISING         N/A     78  58  49 SW13G24   30.01F
6HR MIN TEMP:  61; 6HR MAX TEMP:  78;

$$
MIZ004>006-011>014-085-281900-
CENTRAL UPPER MICHIGAN

CITY           SKY/WX    TMP DP  RH WIND       PRES   REMARKS
MANISTIQUE     MOSUNNY   68  61  76 S13       30.07F
6HR MIN TEMP:  61; 6HR MAX TEMP:  69;

ESCANABA       PTSUNNY   70  59  68 S14       30.05S
6HR MIN TEMP:  59; 6HR MAX TEMP:  70;

MENOMINEE      CLOUDY    72  61  68 SW13      30.06S
6HR MIN TEMP:  59; 6HR MAX TEMP:  72;

SAWYER-GWINN   SUNNY     75  57  53 S15G21    30.02F
$$
MIZ001>003-009>011-084-281900-
WESTERN UPPER MICHIGAN

CITY           SKY/WX    TMP DP  RH WIND       PRES   REMARKS
IRON MOUNTAIN  CLOUDY    73  61  65 SW12      30.04S
6HR MIN TEMP:  58; 6HR MAX TEMP:  73;

HOUGHTON       CLOUDY    69  60  73 W10       29.99S
6HR MIN TEMP:  57; 6HR MAX TEMP:  72;

COPPER HARBOR    N/A     68  60  75 N12       29.97F
6HR MIN TEMP:  61; 6HR MAX TEMP:  73;

IRONWOOD       PTSUNNY   72  63  73 W10       29.99S
6HR MIN TEMP:  63; 6HR MAX TEMP:  72;

$$

ABBREVIATIONS USED IN REMARKS
   TC - TEMPERATURE IN CELSIUS
  WCI - WIND CHILL INDEX
   HX - HEAT INDEX
  VSB - VISIBILITY



USA.gov is the U.S. government's official web portal to all federal, state and local government web resources and services.